"Pseudo-MPEC" for P115PYu

Created 2020 Sep 17 0:07:18 UT using Find_Orb

Click here for an explanation of pseudo-MPECs

 
 Astrometry: 
     P115PYu  C2020 09 13[VLYlw4cKWi,0uN4d-#XakgPSOL5`Rn,O]oUyLD,6t4JPxWS1sKsF51
     P115PYu  C2020 09 138,AXAstrometry;'1d3:!\oTcn:yBO$r'5%8.Pn[hb/3WkDuX8v;F51
     P115PYu  C2020 09 13bQX0kredacted;WR@[$q]:clickY3coUcWv4/tdhg`]O7;_]LkWbF51
     P115PYu KC2020 09 14IY3,tls]aNrhereFwaVKKx815g#*`forVK=twQZKxS._[b2(9s8eH21
     P115PYu KC2020 09 14D6W/%y2/%rexplanatione+j^Ygi:lgG')91V2IAV9xewRMW$lbnH21
     P115PYu KC2020 09 14*A5t5';][Bfx[wTGFuW9MwW%O^\S*xHi?]c/eXlF!2D6cR^cM;U8H21

Station data:
(F51) Pan-STARRS 1, Haleakala  (N20.707235 W156.255910)  US/Hawaii.
   Observers N. Primak, A. Schultz, S. Watters, J. Thiel, T. Goggia. Measurer
   PS1 Science Consortium. 1.8-m Ritchey-Chrétien + CCD.
(H21) Astronomical Research Observatory, Westfield  (N39.483057 W87.968270)
   US/Illinois. 0.76-m f/3.0 astrograph + CCD.

Orbital elements:  P115PYu
   Perihelion 2020 Nov 24.072655 +/- 49.3 TT =  1:44:37 (JD 2459177.572655)
Epoch 2020 Sep 14.0 TT = JDT 2459106.5   Earth MOID: 0.3850   Ma: 0.0913
M 344.24097622 +/- 12               (J2000 ecliptic)          AutoNEOCP
n   0.22173118 +/- 0.159            Peri.   48.65356 +/- 43
a   2.70344913 +/- 1.36             Node   359.92475 +/- 1.3
e   0.5022733 +/- 0.202             Incl.   10.91002 +/- 3.4
P   4.45                   H 22.2   G  0.15   U 11.5  SR
q 1.34557861 +/- 0.282    Q 4.06131965 +/- 15.4
From 6 observations 2020 Sept. 13-14 (19.3 hr); mean residual 0".14
Residuals in arcseconds: 
200913 F51  .13+  .14-    200913 F51  .14-  .18+    200914 H21  .00   .03-    
200913 F51  .01+  .04-    200914 H21  .02-  .27+    200914 H21  .02+  .24-    

Ephemerides (geocentric):
Date (UTC) HH   RA              Dec         delta   r     elong  mag " sig PA
---- -- -- --  -------------   -----------  ------ ------ -----  --- ---- ---
2020 09 17 00  00 40 49.706   +04 28 29.82  .52654 1.5168 163.1 22.4  131  66
2020 09 17 01  00 40 48.347   +04 29 15.46  .52629 1.5166 163.2 22.4  135  66
2020 09 17 02  00 40 46.984   +04 30 01.12  .52603 1.5164 163.2 22.4  139  66
2020 09 17 03  00 40 45.617   +04 30 46.81  .52578 1.5162 163.3 22.4  142  66
2020 09 17 04  00 40 44.247   +04 31 32.53  .52552 1.5160 163.3 22.4  146  66
2020 09 17 05  00 40 42.872   +04 32 18.28  .52527 1.5158 163.4 22.4  150  66
2020 09 17 06  00 40 41.494   +04 33 04.06  .52501 1.5156 163.4 22.4  154  66
2020 09 17 07  00 40 40.111   +04 33 49.86  .52476 1.5155 163.4 22.4  158  66
2020 09 17 08  00 40 38.725   +04 34 35.69  .52451 1.5153 163.5 22.4  162  66
2020 09 17 09  00 40 37.335   +04 35 21.54  .52425 1.5151 163.5 22.4  166  66
2020 09 17 10  00 40 35.941   +04 36 07.43  .52400 1.5149 163.6 22.4  170  66
2020 09 17 11  00 40 34.543   +04 36 53.34  .52375 1.5147 163.6 22.4  174  66
2020 09 17 12  00 40 33.141   +04 37 39.28  .52350 1.5145 163.6 22.4  179  66
2020 09 17 13  00 40 31.735   +04 38 25.25  .52325 1.5143 163.7 22.4  183  66
2020 09 17 14  00 40 30.326   +04 39 11.25  .52300 1.5141 163.7 22.4  187  66
2020 09 17 15  00 40 28.913   +04 39 57.27  .52275 1.5139 163.8 22.4  192  66
2020 09 17 16  00 40 27.495   +04 40 43.32  .52249 1.5138 163.8 22.4  196  66
2020 09 17 17  00 40 26.074   +04 41 29.40  .52224 1.5136 163.8 22.4  201  66
2020 09 17 18  00 40 24.650   +04 42 15.50  .52199 1.5134 163.9 22.4  205  66
2020 09 17 19  00 40 23.221   +04 43 01.64  .52174 1.5132 163.9 22.4  210  66
2020 09 17 20  00 40 21.788   +04 43 47.80  .52150 1.5130 164.0 22.4  215  66
2020 09 17 21  00 40 20.352   +04 44 33.99  .52125 1.5128 164.0 22.4  219  66
2020 09 17 22  00 40 18.912   +04 45 20.20  .52100 1.5126 164.0 22.4  224  66
2020 09 17 23  00 40 17.468   +04 46 06.45  .52075 1.5124 164.1 22.4  229  66
2020 09 18 00  00 40 16.020   +04 46 52.72  .52050 1.5122 164.1 22.4  234  66
2020 09 18 01  00 40 14.568   +04 47 39.02  .52025 1.5121 164.2 22.4  239  66
2020 09 18 02  00 40 13.113   +04 48 25.34  .52001 1.5119 164.2 22.4  244  66
2020 09 18 03  00 40 11.653   +04 49 11.70  .51976 1.5117 164.3 22.4  249  66
2020 09 18 04  00 40 10.190   +04 49 58.08  .51951 1.5115 164.3 22.4  254  66
2020 09 18 05  00 40 08.723   +04 50 44.49  .51926 1.5113 164.3 22.4  259  66
2020 09 18 06  00 40 07.253   +04 51 30.92  .51902 1.5111 164.4 22.4  265  66
2020 09 18 07  00 40 05.778   +04 52 17.39  .51877 1.5109 164.4 22.4  270  66
2020 09 18 08  00 40 04.300   +04 53 03.88  .51853 1.5107 164.5 22.3  275  66
2020 09 18 09  00 40 02.818   +04 53 50.40  .51828 1.5106 164.5 22.3  281  66
2020 09 18 10  00 40 01.332   +04 54 36.94  .51804 1.5104 164.5 22.3  286  66
2020 09 18 11  00 39 59.842   +04 55 23.52  .51779 1.5102 164.6 22.3  292  66
2020 09 18 12  00 39 58.349   +04 56 10.12  .51755 1.5100 164.6 22.3  297  66
2020 09 18 13  00 39 56.852   +04 56 56.75  .51730 1.5098 164.7 22.3  303  66
2020 09 18 14  00 39 55.351   +04 57 43.41  .51706 1.5096 164.7 22.3  309  66
2020 09 18 15  00 39 53.846   +04 58 30.09  .51682 1.5094 164.7 22.3  314  66
2020 09 18 16  00 39 52.338   +04 59 16.80  .51657 1.5092 164.8 22.3  320  66
2020 09 18 17  00 39 50.826   +05 00 03.54  .51633 1.5091 164.8 22.3  326  66
2020 09 18 18  00 39 49.310   +05 00 50.31  .51609 1.5089 164.9 22.3  332  66
2020 09 18 19  00 39 47.790   +05 01 37.10  .51584 1.5087 164.9 22.3  338  66
2020 09 18 20  00 39 46.267   +05 02 23.92  .51560 1.5085 164.9 22.3  344  66
2020 09 18 21  00 39 44.740   +05 03 10.77  .51536 1.5083 165.0 22.3  350  66
2020 09 18 22  00 39 43.209   +05 03 57.65  .51512 1.5081 165.0 22.3  356  66
2020 09 18 23  00 39 41.674   +05 04 44.56  .51488 1.5079 165.1 22.3  363  66